Date String (YYYY-MM-DD hh:mm:ss) UTC,Instrument flags,Ambient pressure (hPa),Sample flow (lpm),Bypass flow (lpm),Sample temperature (°C),Ambient temperature (°C),ASC tube jacket temperature (°C),LED temperature (°C),Box temperature (°C),Sample RH (%),Span deviation,Mass concentration (μg/m³),Mass concentration (μg/m³),Mass concentration (μg/m³)
DateTimeUTC,F1_M11,P_M11,Q1_M11,Q2_M11,T1_M11,T2_M11,T3_M11,T4_M11,T5_M11,U1_M11,ZSPAN_M11,X0_M11,X2_M11,X1_M11
2022-10-19 14:00:00,,0832.1,5.00,0.00,25.7,24.3,00.0,34.6,27.6,07.1,0000.0,0002.54,0000.69,0000.49
2022-10-19 14:01:00,,0832.1,5.01,0.00,25.7,24.3,00.0,34.5,27.6,07.0,0000.0,0002.89,0000.74,0000.50
2022-10-19 14:02:00,,0832.1,5.00,0.00,25.7,24.3,00.0,34.6,27.6,06.9,0000.0,0002.84,0000.72,0000.49
2022-10-19 14:03:00,,0832.1,4.99,0.00,25.7,24.4,00.0,34.6,27.6,06.9,0000.0,0002.78,0000.69,0000.48
2022-10-19 14:04:00,,0832.2,5.01,0.00,25.7,24.4,00.0,34.6,27.6,06.8,0000.0,0002.97,0000.71,0000.48
2022-10-19 14:05:00,,0832.2,4.99,0.00,25.7,24.4,00.0,34.6,27.6,06.8,0000.0,0002.75,0000.70,0000.47
2022-10-19 14:06:00,,0832.2,5.00,0.00,25.7,24.4,00.0,34.6,27.6,06.8,0000.0,0003.16,0000.76,0000.47
2022-10-19 14:07:00,,0832.2,5.00,0.00,25.7,24.4,00.0,34.6,27.6,06.8,0000.0,0005.19,0000.81,0000.47
2022-10-19 14:08:00,,0832.1,4.98,0.00,25.7,24.4,00.0,34.6,27.7,07.0,0000.0,0005.42,0000.81,0000.46
2022-10-19 14:09:00,,0832.1,5.01,0.00,25.8,24.5,00.0,34.6,27.7,06.8,0000.0,0005.29,0000.76,0000.43
2022-10-19 14:10:00,,0832.1,4.99,0.00,25.8,24.5,00.0,34.6,27.7,06.8,0000.0,0005.43,0000.75,0000.41
2022-10-19 14:11:00,,0832.1,5.01,0.00,25.8,24.5,00.0,34.6,27.7,06.8,0000.0,0005.28,0000.77,0000.40
2022-10-19 14:12:00,,0832.1,5.01,0.00,25.8,24.5,00.0,34.6,27.7,06.8,0000.0,0005.42,0000.73,0000.38
2022-10-19 14:13:00,,0832.1,5.00,0.00,25.8,24.5,00.0,34.6,27.7,07.2,0000.0,0005.78,0000.76,0000.38
2022-10-19 14:14:00,,0832.1,5.01,0.00,25.8,24.6,00.0,34.6,27.7,07.8,0000.0,0006.32,0000.86,0000.40
2022-10-19 14:15:00,,0832.1,4.99,0.00,25.8,24.5,00.0,34.6,27.7,07.3,0000.0,0006.27,0000.88,0000.41
2022-10-19 14:16:00,,0832.2,5.01,0.00,25.8,24.5,00.0,34.6,27.8,07.8,0000.0,0006.71,0000.91,0000.43
2022-10-19 14:17:00,,0832.1,4.99,0.00,25.8,24.6,00.0,34.6,27.8,07.7,0000.0,0006.27,0000.92,0000.44
2022-10-19 14:18:00,,0832.2,5.01,0.00,25.8,24.6,00.0,34.7,27.8,07.7,0000.0,0004.45,0000.90,0000.45
2022-10-19 14:19:00,,0832.1,5.01,0.00,25.9,24.6,00.0,34.7,27.8,07.4,0000.0,0004.21,0000.94,0000.45
2022-10-19 14:20:00,,0832.1,5.00,0.00,25.9,24.6,00.0,34.7,27.8,07.2,0000.0,0004.24,0000.97,0000.45
2022-10-19 14:21:00,,0832.1,4.99,0.00,25.9,24.6,00.0,34.7,27.8,07.0,0000.0,0004.08,0000.97,0000.46
2022-10-19 14:22:00,,0832.2,5.01,0.00,25.9,24.6,00.0,34.7,27.8,07.2,0000.0,0003.96,0000.97,0000.46
2022-10-19 14:23:00,,0832.2,5.01,0.00,25.9,24.6,00.0,34.7,27.8,07.5,0000.0,0003.47,0001.00,0000.47
2022-10-19 14:24:00,,0832.2,5.00,0.00,25.9,24.6,00.0,34.7,27.8,07.8,0000.0,0003.21,0000.98,0000.47
2022-10-19 14:25:00,,0832.2,4.99,0.00,25.9,24.6,00.0,34.7,27.8,07.7,0000.0,0003.01,0000.97,0000.47
2022-10-19 14:26:00,,0832.2,5.00,0.00,25.9,24.6,00.0,34.7,27.8,07.8,0000.0,0003.98,0001.00,0000.47
2022-10-19 14:27:00,,0832.3,5.01,0.00,25.9,24.7,00.0,34.7,27.8,07.6,0000.0,0003.98,0000.98,0000.46
2022-10-19 14:28:00,,0832.3,5.00,0.00,25.9,24.7,00.0,34.7,27.8,07.3,0000.0,0003.83,0000.92,0000.45
2022-10-19 14:29:00,,0832.2,5.01,0.00,26.0,24.7,00.0,34.7,27.8,07.8,0000.0,0003.65,0000.90,0000.44
2022-10-19 14:30:00,,0832.2,5.00,0.00,26.0,24.7,00.0,34.7,27.9,07.5,0000.0,0003.63,0000.87,0000.44
2022-10-19 14:31:00,,0832.2,4.99,0.00,26.0,24.8,00.0,34.8,27.9,07.5,0000.0,0004.08,0000.89,0000.44
2022-10-19 14:32:00,,0832.3,5.02,0.00,26.0,24.8,00.0,34.8,27.9,07.6,0000.0,0004.52,0000.89,0000.44
2022-10-19 14:33:00,,0832.2,4.99,0.00,26.0,24.8,00.0,34.8,27.9,07.6,0000.0,0004.85,0000.90,0000.46
2022-10-19 14:34:00,,0832.3,4.99,0.00,26.0,24.8,00.0,34.8,27.9,07.8,0000.0,0006.13,0000.91,0000.47
2022-10-19 14:35:00,,0832.3,5.01,0.00,26.0,24.8,00.0,34.8,28.0,07.7,0000.0,0006.43,0000.94,0000.48
2022-10-19 14:36:00,,0832.2,4.99,0.00,26.0,24.8,00.0,34.8,28.0,07.8,0000.0,0007.00,0000.93,0000.49
2022-10-19 14:37:00,,0832.3,5.00,0.00,26.1,24.9,00.0,34.8,28.0,07.8,0000.0,0006.98,0000.87,0000.49
2022-10-19 14:38:00,,0832.3,5.00,0.00,26.1,24.9,00.0,34.8,28.0,07.7,0000.0,0006.49,0000.90,0000.49
2022-10-19 14:39:00,,0832.3,4.99,0.00,26.1,24.9,00.0,34.9,28.0,07.7,0000.0,0006.63,0000.94,0000.50
2022-10-19 14:40:00,,0832.3,5.00,0.00,26.1,24.9,00.0,34.9,28.0,08.0,0000.0,0006.87,0000.98,0000.50
2022-10-19 14:41:00,,0832.3,5.01,0.00,26.1,24.9,00.0,34.9,28.0,08.4,0000.0,0007.07,0001.03,0000.51
2022-10-19 14:42:00,,0832.4,5.00,0.00,26.1,24.9,00.0,34.9,28.0,08.0,0000.0,0006.63,0001.03,0000.53
2022-10-19 14:43:00,,0832.4,5.00,0.00,26.1,25.0,00.0,34.9,28.1,07.6,0000.0,0006.16,0001.04,0000.53
2022-10-19 14:44:00,,0832.3,5.01,0.00,26.2,25.0,00.0,34.9,28.1,07.7,0000.0,0005.82,0001.03,0000.53
2022-10-19 14:45:00,,0832.3,4.99,0.00,26.2,25.0,00.0,34.9,28.1,07.7,0000.0,0004.56,0001.04,0000.53
2022-10-19 14:46:00,,0832.3,5.00,0.00,26.2,25.0,00.0,34.9,28.1,07.6,0000.0,0004.32,0001.08,0000.54
2022-10-19 14:47:00,,0832.4,4.99,0.00,26.2,25.1,00.0,35.0,28.1,07.5,0000.0,0003.46,0001.07,0000.53
2022-10-19 14:48:00,,0832.4,5.01,0.00,26.2,25.1,00.0,35.0,28.2,07.8,0000.0,0002.76,0001.10,0000.53
2022-10-19 14:49:00,,0832.5,4.99,0.00,26.2,25.1,00.0,35.0,28.2,07.8,0000.0,0002.66,0001.10,0000.53
2022-10-19 14:50:00,,0832.5,5.01,0.00,26.3,25.1,00.0,35.0,28.2,07.7,0000.0,0002.70,0001.11,0000.54
2022-10-19 14:51:00,,0832.5,5.00,0.00,26.3,25.2,00.0,35.0,28.2,07.8,0000.0,0002.63,0001.08,0000.55
2022-10-19 14:52:00,,0832.5,4.98,0.00,26.3,25.2,00.0,35.0,28.2,07.7,0000.0,0002.37,0001.01,0000.55
2022-10-19 14:53:00,,0832.5,5.02,0.00,26.3,25.2,00.0,35.0,28.3,07.7,0000.0,0002.32,0000.98,0000.54
2022-10-19 14:54:00,,0832.5,4.98,0.00,26.3,25.3,00.0,35.1,28.3,07.8,0000.0,0002.28,0000.97,0000.55
2022-10-19 14:55:00,,0832.5,5.01,0.00,26.4,25.3,00.0,35.1,28.3,07.9,0000.0,0002.25,0000.97,0000.55
2022-10-19 14:56:00,,0832.5,5.00,0.00,26.4,25.3,00.0,35.1,28.3,07.6,0000.0,0002.11,0000.92,0000.54
2022-10-19 14:57:00,,0832.6,4.99,0.00,26.4,25.4,00.0,35.1,28.4,07.7,0000.0,0001.94,0000.84,0000.53
2022-10-19 14:58:00,,0832.6,5.00,0.00,26.4,25.4,00.0,35.1,28.4,07.8,0000.0,0001.92,0000.83,0000.54
2022-10-19 14:59:00,,0832.6,5.01,0.00,26.5,25.5,00.0,35.2,28.5,07.6,0000.0,0002.73,0000.80,0000.54
